#timestamp,LO_Frequency,Hit,StdDev 
1634432415.2,286047004.4,N
1634432435.1,286047002.0,N
1634432436.0,286047002.0,N
1634432455.8,286047002.6,N
1634432475.7,286047002.0,N
1634432495.5,286047001.1,N
1634432515.3,286047002.5,N
1634432535.2,286047001.5,N
1634432555.0,286047001.4,N
1634432555.9,286047001.4,N
1634432575.8,286047004.2,N
1634432595.6,286047002.6,N
1634432615.4,286047002.8,N
1634432635.3,286047002.8,N
1634432655.1,286047002.8,N
1634432675.8,286046999.7,N
1634432695.7,286047000.1,N
1634432715.5,286046999.7,N
1634432735.4,286047002.7,N
1634432755.2,286047004.4,Y
1634432775.0,286046998.8,P
1634432775.9,286046998.8,N
1634432795.8,286046999.5,N
1634432815.6,286046998.2,N
1634432835.5,286046998.6,N
1634432855.3,286046998.5,N
1634432875.1,286047000.7,N
1634432895.9,286047002.8,N
1634432915.7,286046999.9,N
1634432935.5,286047002.3,N
1634432955.4,286047003.9,N
1634432975.2,286047006.0,Y
1634432995.1,286047005.9,P
1634432996.0,286047005.9,N
1634433015.8,286047005.1,N
1634433035.6,286047001.8,N
1634433055.5,286047002.2,N
1634433075.3,286047004.0,N
1634433095.1,286047005.6,N
1634433115.9,286047004.1,N
1634433135.7,286047001.7,N
1634433155.6,286047000.1,N
1634433175.4,286046998.6,N
1634433195.2,286046998.9,N
1634433215.1,286047000.5,N
1634433216.0,286047000.5,N
1634433235.8,286047000.5,N
1634433255.7,286047000.0,N
1634433275.5,286047000.6,N
1634433295.3,286047002.5,N
1634433315.2,286047002.6,N
1634433335.9,286047000.7,N
1634433355.7,286047002.5,N
1634433375.6,286047004.0,N
1634433395.4,286047002.5,N
1634433415.3,286046999.7,N
1634433435.1,286047003.5,N
1634433436.0,286047003.5,N
1634433455.8,286047004.1,N
1634433475.7,286047003.5,N
1634433495.5,286047003.5,N
1634433515.3,286047005.9,N
1634433535.2,286047003.1,N
1634433555.0,286047003.5,N
1634433555.9,286047003.5,N
1634433575.8,286047003.8,N
1634433595.6,286046999.8,N
1634433615.4,286047004.2,N
1634433635.3,286047003.2,N
1634433655.1,286047006.0,Y
1634433675.9,286047003.6,P
1634433695.7,286047004.0,P
1634433715.5,286047005.3,P
1634433735.4,286047005.6,Y
1634433755.2,286047002.3,P
1634433775.0,286047002.5,P
1634433775.9,286047002.5,P
1634433795.8,286046999.7,N
1634433815.6,286047002.6,N
1634433835.5,286047002.3,N
1634433855.3,286047004.3,Y
1634433875.1,286047001.6,P
1634433895.9,286047000.0,N
1634433915.7,286047000.5,N
1634433935.6,286046998.5,N
1634433955.4,286047000.9,N
1634433975.2,286046999.0,N
1634433995.1,286046998.7,N
1634433996.0,286046998.7,N
1634434015.8,286046999.8,N
1634434035.6,286047002.3,N
1634434055.5,286047002.8,N
1634434075.3,286046998.1,N
1634434095.2,286046998.3,N
1634434115.9,286046998.7,N
1634434135.7,286046998.1,N
1634434155.6,286047000.9,N
1634434175.4,286047000.5,N
1634434195.2,286047001.1,N
1634434215.1,286046999.4,N
1634434216.0,286046999.4,N
1634434235.8,286046999.6,N
1634434255.7,286046998.8,N
1634434275.5,286047000.8,N
1634434295.3,286047000.6,N
1634434315.2,286047000.0,N
1634434335.0,286047002.7,N
1634434335.9,286047002.7,N
1634434355.8,286047002.7,N
1634434375.6,286047002.7,N
1634434395.4,286047002.4,N
1634434415.3,286047000.6,N
1634434435.1,286047002.6,N
1634434455.8,286047000.4,N
1634434475.7,286047003.9,N
1634434495.5,286047001.9,N
1634434515.4,286047001.8,N
1634434535.2,286047003.9,N
1634434555.0,286047003.7,N
1634434555.9,286047003.7,N
1634434575.8,286047004.0,N
1634434595.6,286047001.5,N
1634434615.4,286047001.8,N
1634434635.3,286047000.3,N
1634434655.1,286047002.5,N
1634434675.9,286047000.0,N
1634434695.7,286047002.8,N
1634434715.5,286047002.0,N
1634434735.4,286047005.5,Y
1634434755.2,286047004.1,P
1634434775.0,286047003.7,P
1634434776.0,286047003.7,P
1634434795.8,286047002.7,N
1634434815.6,286047004.1,Y
1634434835.5,286047000.8,P
1634434855.3,286046999.2,N
1634434875.1,286047000.4,N
1634434895.9,286047000.5,N
1634434915.7,286046999.4,N
1634434935.6,286047000.7,N
1634434955.4,286046999.6,N
1634434975.2,286046997.6,N
1634434995.1,286046999.6,N
1634434996.0,286046999.6,N
1634435015.8,286046997.0,N
1634435035.6,286046997.7,N
1634435055.5,286046999.3,N
1634435075.3,286046996.5,N
1634435095.2,286046997.3,N
1634435115.9,286046997.3,N
1634435135.7,286047000.9,N
1634435155.6,286047000.4,N
1634435175.4,286047000.8,N
1634435195.3,286047000.4,N
1634435215.1,286047002.0,N
1634435216.0,286047002.0,N
1634435235.8,286046999.7,N
1634435255.7,286047002.5,N
1634435275.5,286047002.7,N
1634435295.3,286047003.8,N
1634435315.2,286047007.5,Y
1634435335.0,286047004.9,P
1634435335.9,286047004.9,N
1634435355.8,286047001.8,N
1634435375.6,286047001.5,N
1634435395.4,286047003.0,N
1634435415.3,286047006.7,Y
1634435435.1,286047003.3,P
1634435455.9,286047001.7,P
1634435475.7,286047000.4,N
1634435495.5,286047002.8,N
1634435515.4,286047004.3,Y
1634435535.2,286046998.1,P
1634435555.1,286046998.9,N
1634435556.0,286046998.9,N
1634435575.8,286046999.1,N
1634435595.6,286046999.5,N
1634435615.5,286046997.7,N
1634435635.3,286046997.6,N
1634435655.1,286046994.9,Y
1634435675.9,286046996.8,P
1634435695.7,286046997.7,N
1634435715.6,286046996.7,P
1634435735.4,286047000.8,N
1634435755.2,286046996.6,N
1634435775.1,286046996.6,N
1634435776.0,286046996.6,N
1634435795.8,286046998.3,N
1634435815.6,286046998.2,N
1634435835.5,286047000.0,N
1634435855.3,286047001.8,N
1634435875.2,286047002.7,N
1634435895.9,286047002.7,N
1634435915.7,286047001.0,N
1634435935.6,286047000.7,N
1634435955.4,286047004.3,N
1634435975.2,286047002.2,N
1634435995.1,286047002.0,N
1634435996.0,286047002.0,N
